< < Back
Terminal Aerodrome Forecast


Current Version              Previous Versions:   1  2  3  4  5  6  7  8  9  

Terminal Aerodrome Forecast

072
FTUS42 KTAE 312320
TAFTLH
TAF
KTLH 312320Z 0100/0124 09005KT P6SM FEW060 SCT250
     FM011600 08007KT P6SM -SHRA BKN040
      TEMPO 0118/0122 5SM TSRA FEW010 BKN035CB=

Latest METAR

019
SAUS80 KWBC 010800 RRE
MTRTLH
METAR KTLH 010753Z 00000KT 10SM FEW250 23/21 A3003 RMK AO2 SLP167
T02330211 $


USA.gov is the U.S. government's official web portal to all federal, state and local government web resources and services.